Theta_e
301 301 301 302 304 305 307 308 307 304 304 307 309 310 309 312 312 319 320 318 319 316 317 326 335 339 343 345 346 348 360 367 361 360 364 357 359 357 357 357 355 354 355 352 349
301 301 301 302 304 306 308 307 306 304 305 309 309 308 312 313 318 320 320 317 315 312 330 333 339 340 345 345 347 351 354 364 357 359 363 357 356 357 357 357 357 354 352 349 348
300 301 302 303 306 307 308 306 306 306 308 309 308 309 312 315 324 324 319 319 311 322 331 336 338 341 343 341 346 348 353 363 362 355 357 358 358 357 355 356 356 356 355 350 349
300 302 303 305 308 308 307 306 308 308 308 308 309 313 310 320 326 327 321 317 315 321 334 336 338 341 340 341 341 346 346 348 356 353 352 360 357 355 359 360 354 353 352 351 350
301 303 303 307 310 310 306 307 307 307 307 308 312 313 320 324 320 321 323 326 324 322 335 337 339 340 337 335 337 339 344 344 355 355 354 355 358 357 357 354 353 352 352 352 350
302 304 304 307 310 310 306 307 307 307 308 311 314 312 323 322 318 319 326 334 325 324 333 335 336 337 333 331 332 334 338 342 348 352 353 353 355 353 356 354 354 353 354 352 351
305 306 304 308 309 307 307 307 309 312 313 313 311 319 322 321 316 319 326 327 324 326 334 334 332 334 329 328 328 331 332 334 340 346 349 351 356 356 356 355 356 354 353 352 351
307 306 305 308 307 307 307 308 312 313 311 313 316 323 324 317 318 321 326 327 327 326 330 331 329 329 329 327 324 327 329 333 334 337 343 349 357 354 357 356 357 356 353 353 351
307 307 305 308 306 308 309 309 311 312 313 320 325 326 321 316 318 316 326 328 328 330 329 328 327 328 328 326 326 324 327 330 334 335 342 349 355 363 355 356 358 357 353 353 351
307 307 305 308 306 308 310 308 320 320 322 323 322 324 316 316 315 316 318 325 331 328 331 327 326 327 328 327 326 324 324 328 332 338 344 349 355 363 360 356 358 357 355 354 353
307 307 306 307 307 308 311 315 324 323 318 316 316 316 315 315 315 318 318 326 331 328 329 328 326 326 327 327 325 325 325 325 330 340 345 348 352 365 357 356 358 358 357 354 354
306 307 305 306 308 311 312 316 314 314 318 315 314 315 314 315 318 321 323 326 327 332 328 326 326 325 325 325 325 325 325 326 327 330 344 348 350 357 356 357 357 357 358 354 354
306 306 305 306 307 311 315 314 313 313 318 316 316 315 315 315 316 318 324 324 325 328 329 328 325 324 324 324 324 325 325 326 327 329 336 345 349 357 363 360 356 356 356 354 353
307 306 305 308 310 315 316 314 313 313 320 316 315 315 315 315 316 316 320 326 325 324 326 326 325 325 324 325 325 325 324 325 326 328 338 341 349 349 364 365 356 355 357 355 350
307 306 306 309 315 317 314 314 312 314 321 315 315 313 315 315 316 317 317 321 324 326 324 324 326 326 327 326 324 325 325 324 324 326 330 337 342 342 349 355 356 355 355 355 352
307 306 309 315 315 315 314 314 313 316 318 314 314 314 315 315 315 316 318 319 321 323 324 327 324 324 326 327 326 326 325 325 325 324 326 332 338 342 346 349 354 354 354 354 354
306 307 309 312 316 314 314 316 318 317 316 315 315 314 314 315 315 315 317 319 320 322 322 323 327 326 325 327 327 327 327 328 326 326 325 325 331 344 341 347 349 353 354 354 353
306 308 314 313 314 313 315 319 320 318 317 315 314 315 314 315 315 315 316 316 318 317 319 323 324 325 327 327 328 328 327 328 330 327 325 324 327 334 338 344 346 350 352 353 354
309 313 315 315 313 313 318 322 322 320 317 316 316 316 316 314 313 315 316 317 319 317 318 319 322 325 326 327 327 328 328 327 328 329 328 326 325 327 331 336 345 346 351 353 354
312 315 316 314 313 315 320 318 320 316 316 316 318 316 318 317 315 317 317 317 316 314 316 318 321 323 325 326 326 327 329 329 329 333 332 331 329 326 329 333 337 341 346 348 352
314 319 315 314 315 320 322 320 317 315 315 317 318 317 317 317 316 317 317 316 315 316 314 316 317 318 320 325 326 327 328 330 330 330 333 333 333 331 329 332 336 337 341 344 345
317 321 314 314 320 319 320 317 309 315 315 316 316 316 316 316 316 316 316 316 314 314 315 316 316 318 317 318 320 323 326 327 333 335 332 333 333 332 330 330 334 337 339 340 341
319 318 314 316 321 318 316 315 315 316 314 314 315 314 315 315 315 315 314 314 313 314 315 317 317 318 316 316 317 321 325 328 327 331 335 334 334 334 333 333 334 336 337 338 339
319 321 317 316 316 317 317 316 316 313 313 313 314 313 314 314 313 314 314 313 312 312 314 314 316 318 318 318 318 320 319 325 328 331 331 334 333 335 334 335 338 342 343 343 342
317 316 315 317 316 316 315 314 314 315 313 312 313 312 313 314 313 313 313 312 312 312 312 313 315 316 316 316 316 316 319 322 328 329 332 331 333 335 335 334 341 343 342 342 342
319 317 315 315 315 316 312 315 313 312 313 312 312 311 312 312 311 312 311 311 311 312 314 313 316 316 316 316 316 316 315 316 318 321 324 329 331 332 331 334 336 336 342 343 343
313 313 315 312 315 315 314 313 312 312 311 311 311 311 312 311 310 311 311 311 310 311 312 315 317 317 318 315 315 316 316 315 316 317 320 325 329 330 331 332 340 343 342 341 342
Wind_Speed
26 26 26 27 25 22 21 20 16 13 11 13 15 14 14 11 8 8 11 6 16 9 19 17 21 21 19 15 15 10 10 7 5 8 8 11 5 1 15 10 5 5 11 27 35
27 28 29 29 27 25 23 21 17 13 11 11 15 14 13 8 11 17 12 12 13 18 19 25 21 19 15 18 12 14 12 0 6 13 13 15 14 10 8 11 8 9 20 33 36
28 29 30 31 28 26 25 20 14 11 11 12 13 13 8 3 12 5 9 13 14 26 21 21 20 18 18 14 18 17 15 11 24 9 8 5 16 18 9 13 15 17 25 28 33
29 30 31 31 28 25 23 18 15 12 13 13 11 8 3 6 1 9 8 7 15 24 23 22 19 19 18 18 16 17 13 14 13 2 5 8 4 11 10 5 14 22 25 27 28
31 31 32 32 28 24 20 18 18 17 14 10 7 3 2 8 2 5 6 7 17 22 26 21 20 19 18 16 15 18 17 10 12 5 6 6 15 0 14 11 18 23 26 27 25
31 32 33 32 29 23 18 19 17 12 6 6 3 3 7 11 4 6 3 10 20 27 26 23 15 18 13 16 15 10 18 14 10 10 8 10 12 7 15 12 18 22 25 26 26
31 32 33 32 28 19 17 16 13 7 4 4 4 5 9 5 3 3 3 10 16 26 19 22 18 16 9 15 12 16 11 16 17 12 8 11 12 15 17 14 19 20 22 25 25
32 32 33 30 22 18 20 11 7 5 7 3 3 7 2 2 2 3 5 9 13 19 19 18 15 14 18 7 5 16 18 16 20 19 17 15 18 17 18 17 19 20 21 23 24
32 31 32 28 16 18 20 7 6 4 3 3 4 8 6 3 7 2 4 9 15 14 13 13 13 14 17 13 12 14 16 21 18 22 18 17 10 12 18 16 18 19 21 21 22
31 31 30 25 15 15 16 6 9 4 2 7 9 8 3 4 2 3 4 6 14 12 14 11 10 16 17 14 15 18 19 19 20 19 21 19 10 21 29 18 18 19 20 22 23
32 30 28 23 14 11 18 6 6 7 17 5 6 5 3 5 7 6 8 14 16 13 15 18 15 19 23 20 21 15 17 21 18 16 17 22 16 17 15 18 19 19 20 21 24
32 30 28 19 10 10 12 7 6 6 5 5 1 3 1 3 6 4 10 11 12 16 18 14 21 20 19 17 19 20 14 16 20 17 16 19 17 20 17 17 19 19 19 21 22
31 31 27 15 9 10 4 7 7 5 7 10 3 2 0 8 2 5 9 12 11 18 21 21 11 20 20 18 17 18 18 15 16 15 18 16 20 19 8 15 18 18 20 20 23
30 33 22 11 6 4 3 10 7 5 6 12 10 5 6 3 6 1 4 10 10 17 20 21 20 8 22 20 17 18 17 18 16 17 16 20 16 22 27 27 19 17 21 21 23
30 29 13 6 11 4 8 10 3 7 6 2 6 5 2 10 2 9 2 8 14 13 14 21 20 21 16 20 18 18 16 17 18 16 16 19 18 17 24 20 22 21 21 23 23
31 16 3 3 6 5 9 8 6 8 1 7 2 1 8 5 4 0 6 6 6 11 15 18 18 20 25 16 15 18 17 16 16 15 17 23 20 19 17 22 22 23 23 23 24
27 2 2 4 8 12 11 7 7 7 4 7 3 3 5 1 6 6 7 11 9 11 14 17 20 20 17 20 21 16 19 13 14 14 18 23 23 17 18 21 19 27 24 24 24
17 7 6 4 13 9 9 8 7 5 7 4 2 5 9 4 9 7 9 11 11 11 15 14 17 23 20 20 22 21 21 13 21 16 17 23 25 21 20 11 8 19 24 23 24
6 6 4 10 7 5 7 9 7 10 6 6 10 9 9 6 8 1 7 12 8 9 13 11 18 6 23 22 23 24 22 23 23 21 18 18 26 20 27 21 15 14 20 23 24
10 6 6 12 4 8 7 3 4 8 8 6 11 2 6 2 3 5 2 6 2 4 8 8 12 14 10 12 15 21 16 22 17 23 23 18 19 19 23 22 23 14 15 19 25
7 5 9 10 6 7 6 7 5 7 7 5 5 6 6 7 7 10 8 7 3 7 8 13 8 18 10 8 18 17 19 16 17 21 18 15 13 13 23 19 17 22 17 17 18
6 4 14 8 6 3 5 5 3 4 2 2 3 5 5 6 8 12 10 3 7 9 13 10 9 14 20 16 20 24 19 27 15 21 20 16 13 8 14 19 20 19 21 20 19
3 5 12 12 2 6 6 8 6 4 6 4 2 4 4 8 4 7 7 8 7 10 7 11 10 13 17 15 18 17 19 19 24 22 21 18 16 10 5 2 10 20 17 12 7
4 1 5 7 6 6 5 5 4 5 3 4 5 4 6 7 5 6 6 5 7 12 10 9 14 18 15 6 12 12 24 22 19 17 22 19 19 16 12 8 10 11 11 11 8
5 5 5 6 7 7 6 1 3 4 3 2 4 5 6 5 4 6 7 10 6 13 10 12 18 19 19 19 16 14 15 13 16 18 19 18 19 15 10 12 13 6 4 5 5
3 2 4 5 2 4 3 7 6 5 2 6 2 2 6 6 9 14 14 12 10 4 10 14 12 17 19 19 16 19 17 18 19 20 22 22 19 19 15 9 2 2 4 6 6
6 3 3 1 3 3 8 7 6 4 4 3 2 9 7 7 8 13 14 14 14 12 11 6 8 11 17 18 20 22 23 20 21 22 21 21 18 17 11 6 12 11 5 7 9
Wind_Direction
5 2 357 352 347 343 338 334 326 318 305 303 306 306 306 293 284 258 242 224 211 215 177 185 196 197 206 213 227 220 254 285 230 206 213 146 106 187 248 141 142 157 158 151 157
3 359 355 351 346 341 337 336 329 321 304 301 308 309 308 289 266 253 234 246 220 181 194 185 187 190 202 217 211 242 250 64 249 120 280 136 140 231 172 147 152 131 115 147 162
1 358 354 349 345 340 337 340 339 328 308 306 307 308 314 263 269 142 166 239 206 183 207 190 187 195 209 216 213 222 256 175 267 52 82 243 151 190 164 180 157 139 140 153 164
359 356 352 350 345 340 337 339 335 321 307 304 304 309 304 248 317 95 321 242 197 193 220 199 197 200 212 211 221 249 229 262 323 82 78 308 231 174 99 282 137 138 148 163 165
357 355 351 349 343 340 335 334 327 311 303 287 292 300 265 223 248 4 340 234 189 195 217 201 202 206 219 227 224 226 260 230 227 231 127 198 231 315 135 120 121 139 153 165 169
355 353 350 349 343 339 336 334 331 329 314 275 274 217 248 254 27 1 346 171 186 195 212 205 210 213 239 248 233 232 236 259 239 232 190 210 230 185 123 131 132 150 160 167 173
353 351 350 347 342 341 336 335 333 344 342 275 247 217 257 353 318 316 182 172 186 196 206 205 217 219 232 253 226 253 255 232 243 228 219 223 218 193 132 154 149 159 166 172 178
352 349 348 348 344 343 336 335 340 358 352 106 181 242 6 18 248 210 174 176 182 205 221 203 214 256 235 248 251 227 238 246 209 220 228 209 218 177 154 161 160 162 171 176 177
350 348 345 347 343 343 344 326 340 353 340 140 226 236 105 214 216 155 190 182 178 199 225 208 244 232 229 241 234 204 233 218 240 198 215 208 222 33 165 170 162 166 172 177 183
349 347 343 343 338 335 339 317 289 298 253 245 264 247 129 352 50 180 172 191 175 181 208 189 216 225 222 211 228 213 219 235 217 180 211 203 180 136 228 175 165 169 173 180 185
347 345 341 339 334 330 325 262 213 198 226 343 14 339 64 102 168 204 184 176 179 197 195 203 218 213 211 224 239 267 238 229 200 206 209 231 199 138 193 174 166 173 177 184 187
345 342 337 332 317 335 310 23 27 340 268 163 208 186 325 332 171 150 192 195 200 208 209 189 223 228 230 227 234 253 252 264 238 216 209 220 225 177 178 177 175 176 178 184 184
344 341 334 325 285 282 31 26 316 294 252 163 198 13 88 272 11 78 227 227 209 215 207 226 211 223 239 232 233 233 241 244 248 222 225 242 235 181 109 277 185 181 176 184 187
342 339 333 318 279 339 79 351 318 232 255 141 199 146 215 243 198 304 288 281 231 234 228 227 235 211 221 234 225 235 224 254 261 244 211 229 244 224 162 210 191 188 174 185 186
343 336 329 322 316 339 334 336 312 219 249 114 115 46 247 252 52 147 237 233 261 225 237 231 227 241 227 236 224 242 248 217 243 255 257 226 226 254 193 184 186 193 193 187 187
342 336 340 247 232 333 322 320 239 234 173 123 117 197 223 201 192 81 224 221 296 280 271 263 236 231 236 229 237 240 241 248 227 235 238 238 241 221 213 196 192 190 196 195 191
342 312 342 310 335 313 305 265 234 253 165 126 123 253 287 147 206 263 242 214 237 223 230 230 241 252 226 224 223 220 221 218 217 224 233 222 236 248 208 193 210 191 197 192 195
341 214 291 272 316 295 260 236 256 39 50 53 255 269 264 24 211 267 246 247 206 267 290 273 215 218 212 233 223 214 214 219 211 216 226 229 218 230 250 193 155 212 192 193 196
346 243 279 333 315 266 238 232 5 19 8 340 280 245 214 176 284 234 240 289 23 352 294 286 268 9 213 214 243 209 220 239 252 249 239 212 217 234 224 236 157 271 191 183 191
323 248 44 337 301 250 244 359 67 20 332 296 283 83 298 155 279 185 256 82 251 286 294 284 283 281 202 244 259 258 242 222 242 247 252 233 222 206 220 219 217 205 228 192 188
268 232 21 335 255 240 288 59 93 56 331 322 344 306 297 315 311 297 287 107 205 304 294 294 278 263 241 215 238 230 249 255 248 229 244 246 227 237 199 203 223 207 214 209 215
273 270 1 320 241 345 51 16 318 23 34 28 289 317 292 322 280 278 273 345 67 326 306 312 281 248 248 229 238 244 249 233 239 227 234 252 238 8 191 186 201 227 215 216 215
350 39 11 297 292 94 125 97 45 28 24 9 13 346 7 306 298 262 293 347 357 296 315 329 236 248 244 261 265 252 246 261 233 252 229 223 234 111 110 284 190 198 229 223 253
291 200 83 52 27 86 114 39 106 57 68 10 343 301 306 270 222 276 274 333 329 287 17 312 274 279 272 296 343 279 232 244 259 242 238 235 225 152 158 171 84 59 34 26 4
349 61 337 21 51 67 56 43 66 49 24 6 51 1 10 300 304 267 270 292 261 271 244 250 265 268 278 286 278 280 293 287 255 261 271 260 234 239 304 187 96 81 34 358 341
13 67 72 82 356 98 165 68 37 9 341 41 68 324 301 285 298 312 304 284 281 265 275 275 257 284 270 267 263 261 246 249 260 262 271 274 276 288 5 17 354 170 84 345 335
66 52 35 283 50 22 38 35 21 325 26 14 321 295 296 349 308 294 293 288 270 262 263 267 280 283 265 259 250 244 242 239 244 246 248 251 252 271 252 289 358 36 16 340 325